Powrót do katalogu

STARLINK-35353

AktywnyŁącznośćSSO
NORAD 65669·PAYLOAD·🇺🇸 United States

Wystrzelony Sep 19, 2025 z Vandenberg Space Force Base

Loading…

Następne Przeloty (najbliższe 24 godziny)

TLE

ŚwieżeSource: CelesTrak SupGP

Epoka: Sep 14, 2026, 15:46 UTC

1 65669C 25211T   26257.65743056 -.00042569  00000+0 -13216-2 0  2570
2 65669  97.2833 297.9753 0001162 106.9524  49.2032 15.33456431    11

Śledź STARLINK-35353 w czasie rzeczywistym z AllMySat

Download on the App Store